| time (UTC) | temp F | wind direction | speed MPH | gust MPH | rain 1hr in | rain 24hr in | rain mn in | humidity % | barometer mb |
| 20260510211515 | 83 | 327 | 0.0 | 4.0 | 0.00 | 0.00 | 0.00 | 35 | 1013.6 |
| 20260510210016 | 84 | 305 | 1.0 | 4.0 | 0.00 | 0.00 | 0.00 | 34 | 1013.6 |
| 20260510204608 | 84 | 305 | 0.0 | 6.0 | 0.00 | 0.00 | 0.00 | 37 | 1013.7 |
| 20260510203028 | 83 | 303 | 0.0 | 6.0 | 0.00 | 0.00 | 0.00 | 38 | 1013.9 |
| 20260510201629 | 84 | 303 | 1.0 | 6.0 | 0.00 | 0.00 | 0.00 | 36 | 1013.9 |
| 20260510200052 | 84 | 25 | 2.0 | 6.0 | 0.00 | 0.00 | 0.00 | 30 | 1014.0 |
| 20260510194513 | 84 | 60 | 0.0 | 3.0 | 0.00 | 0.00 | 0.00 | 35 | 1014.0 |
| 20260510193110 | 83 | 309 | 0.0 | 5.0 | 0.00 | 0.00 | 0.00 | 38 | 1014.2 |
| 20260510191524 | 83 | 309 | 3.0 | 8.0 | 0.00 | 0.00 | 0.00 | 35 | 1014.3 |
| 20260510190130 | 83 | 246 | 1.0 | 5.0 | 0.00 | 0.00 | 0.00 | 38 | 1014.4 |
| 20260510184553 | 83 | 325 | 1.0 | 7.0 | 0.00 | 0.00 | 0.00 | 34 | 1014.6 |
| 20260510183010 | 83 | 317 | 0.0 | 7.0 | 0.00 | 0.00 | 0.00 | 35 | 1014.6 |
| 20260510181609 | 82 | 24 | 1.0 | 8.0 | 0.00 | 0.00 | 0.00 | 34 | 1014.5 |
| 20260510180013 | 83 | 131 | 0.0 | 7.0 | 0.00 | 0.00 | 0.00 | 43 | 1014.7 |
| 20260510173054 | 81 | 330 | 1.0 | 6.0 | 0.00 | 0.00 | 0.00 | 38 | 1015.1 |
| 20260510171516 | 83 | 15 | 1.0 | 7.0 | 0.00 | 0.00 | 0.00 | 38 | 1015.3 |
| 20260510170125 | 81 | 113 | 0.0 | 5.0 | 0.00 | 0.00 | 0.00 | 41 | 1015.4 |
| 20260510164538 | 81 | 265 | 0.0 | 3.0 | 0.00 | 0.00 | 0.00 | 38 | 1015.2 |
| 20260510163121 | 82 | 11 | 1.0 | 11.0 | 0.00 | 0.00 | 0.00 | 38 | 1015.3 |
| 20260510161539 | 81 | 80 | 2.0 | 6.0 | 0.00 | 0.00 | 0.00 | 44 | 1015.6 |
| 20260510160136 | 81 | 30 | 5.0 | 10.0 | 0.00 | 0.00 | 0.00 | 44 | 1015.5 |
| 20260510154551 | 80 | 32 | 2.0 | 7.0 | 0.00 | 0.00 | 0.00 | 45 | 1015.4 |
| 20260510153027 | 79 | 29 | 1.0 | 7.0 | 0.00 | 0.00 | 0.00 | 47 | 1015.4 |
| 20260510151530 | 80 | 22 | 3.0 | 7.0 | 0.00 | 0.00 | 0.00 | 49 | 1015.6 |
| 20260510150017 | 79 | 330 | 2.0 | 10.0 | 0.00 | 0.00 | 0.00 | 49 | 1015.7 |
| 20260510144512 | 78 | 22 | 1.0 | 7.0 | 0.00 | 0.00 | 0.00 | 59 | 1015.7 |
| 20260510143009 | 76 | 316 | 1.0 | 6.0 | 0.00 | 0.00 | 0.00 | 63 | 1015.6 |
| 20260510141504 | 75 | 329 | 0.0 | 6.0 | 0.00 | 0.00 | 0.00 | 65 | 1015.5 |
| 20260510140000 | 74 | 328 | 0.0 | 5.0 | 0.00 | 0.00 | 0.00 | 67 | 1015.4 |
| 20260510134557 | 73 | 23 | 1.0 | 7.0 | 0.00 | 0.00 | 0.00 | 70 | 1015.5 |
| 20260510133052 | 70 | 29 | 2.0 | 9.0 | 0.00 | 0.00 | 0.00 | 75 | 1015.6 |
| 20260510131547 | 67 | 30 | 2.0 | 7.0 | 0.00 | 0.00 | 0.00 | 90 | 1015.5 |
| 20260510130049 | 64 | 323 | 0.0 | 4.0 | 0.00 | 0.00 | 0.00 | 95 | 1015.5 |
| 20260510124555 | 63 | 257 | 0.0 | 4.0 | 0.00 | 0.01 | 0.00 | 96 | 1015.3 |
| 20260510123034 | 61 | 160 | 0.0 | 1.0 | 0.00 | 0.01 | 0.00 | 96 | 1015.1 |
| 20260510121535 | 58 | 160 | 0.0 | 1.0 | 0.00 | 0.01 | 0.00 | 95 | 1014.8 |
| 20260510120031 | 55 | 184 | 0.0 | 0.0 | 0.00 | 0.01 | 0.00 | 94 | 1014.6 |
| 20260510114523 | 54 | 194 | 0.0 | 0.0 | 0.00 | 0.01 | 0.00 | 93 | 1014.5 |
| 20260510113022 | 54 | 232 | 0.0 | 0.0 | 0.00 | 0.01 | 0.00 | 93 | 1014.2 |
| 20260510111523 | 53 | 117 | 0.0 | 0.0 | 0.00 | 0.01 | 0.00 | 93 | 1014.1 |
| 20260510110033 | 53 | 117 | 0.0 | 0.0 | 0.00 | 0.01 | 0.00 | 92 | 1014.0 |
| 20260510104514 | 53 | 212 | 0.0 | 0.0 | 0.00 | 0.01 | 0.00 | 92 | 1013.8 |
| 20260510103012 | 53 | 212 | 0.0 | 0.0 | 0.00 | 0.01 | 0.00 | 92 | 1013.5 |
| 20260510101511 | 54 | 212 | 0.0 | 0.0 | 0.00 | 0.01 | 0.00 | 92 | 1013.3 |
| 20260510100007 | 54 | 212 | 0.0 | 0.0 | 0.00 | 0.01 | 0.00 | 92 | 1013.2 |
| 20260510094507 | 55 | 212 | 0.0 | 0.0 | 0.00 | 0.01 | 0.00 | 92 | 1012.9 |
| 20260510093002 | 55 | 212 | 0.0 | 0.0 | 0.00 | 0.01 | 0.00 | 92 | 1012.8 |
| 20260510091600 | 55 | 212 | 0.0 | 0.0 | 0.00 | 0.01 | 0.00 | 92 | 1012.6 |
| 20260510090058 | 56 | 212 | 0.0 | 0.0 | 0.00 | 0.01 | 0.00 | 92 | 1012.5 |
| 20260510084555 | 56 | 212 | 0.0 | 0.0 | 0.00 | 0.01 | 0.00 | 92 | 1012.3 |
| 20260510083105 | 56 | 212 | 0.0 | 0.0 | 0.00 | 0.01 | 0.00 | 92 | 1012.2 |
| 20260510081552 | 56 | 212 | 0.0 | 0.0 | 0.00 | 0.01 | 0.00 | 92 | 1012.0 |
| 20260510080056 | 57 | 212 | 0.0 | 0.0 | 0.00 | 0.01 | 0.00 | 92 | 1012.0 |
| 20260510074550 | 57 | 212 | 0.0 | 0.0 | 0.00 | 0.01 | 0.00 | 92 | 1011.9 |
| 20260510073053 | 57 | 212 | 0.0 | 0.0 | 0.00 | 0.01 | 0.00 | 92 | 1011.9 |
| 20260510071548 | 57 | 212 | 0.0 | 0.0 | 0.00 | 0.01 | 0.00 | 92 | 1011.8 |
| 20260510070049 | 57 | 212 | 0.0 | 0.0 | 0.00 | 0.01 | 0.00 | 92 | 1011.7 |
| 20260510064546 | 57 | 212 | 0.0 | 0.0 | 0.00 | 0.01 | 0.00 | 92 | 1011.9 |
| 20260510063045 | 57 | 212 | 0.0 | 0.0 | 0.00 | 0.01 | 0.00 | 91 | 1011.8 |
| 20260510061546 | 57 | 212 | 0.0 | 0.0 | 0.00 | 0.01 | 0.00 | 91 | 1011.9 |
| 20260510060043 | 58 | 212 | 0.0 | 0.0 | 0.00 | 0.01 | 0.00 | 91 | 1011.8 |
| 20260510054542 | 58 | 212 | 0.0 | 0.0 | 0.00 | 0.01 | 0.00 | 91 | 1011.9 |
| 20260510053041 | 58 | 212 | 0.0 | 0.0 | 0.00 | 0.01 | 0.00 | 90 | 1011.7 |
| 20260510051539 | 58 | 212 | 0.0 | 0.0 | 0.00 | 0.01 | 0.00 | 90 | 1012.0 |
| 20260510050041 | 58 | 212 | 0.0 | 0.0 | 0.00 | 0.01 | 0.00 | 90 | 1012.1 |
| 20260510044538 | 59 | 212 | 0.0 | 0.0 | 0.00 | 0.01 | 0.00 | 90 | 1012.0 |
| 20260510043035 | 59 | 212 | 0.0 | 0.0 | 0.00 | 0.01 | 0.00 | 89 | 1012.2 |
| 20260510041633 | 59 | 212 | 0.0 | 0.0 | 0.00 | 0.01 | 0.00 | 89 | 1012.2 |
| 20260510040031 | 60 | 212 | 0.0 | 0.0 | 0.00 | 0.01 | 0.00 | 89 | 1012.2 |
| 20260510034530 | 60 | 212 | 0.0 | 0.0 | 0.00 | 0.01 | 0.01 | 89 | 1012.3 |
| 20260510033029 | 60 | 212 | 0.0 | 0.0 | 0.00 | 0.01 | 0.01 | 89 | 1012.2 |
| 20260510031529 | 60 | 212 | 0.0 | 0.0 | 0.00 | 0.01 | 0.01 | 88 | 1012.2 |
| 20260510030029 | 61 | 212 | 0.0 | 0.0 | 0.00 | 0.01 | 0.01 | 88 | 1012.2 |
| 20260510024528 | 61 | 212 | 0.0 | 0.0 | 0.00 | 0.01 | 0.01 | 88 | 1012.1 |
| 20260510023031 | 62 | 212 | 0.0 | 0.0 | 0.00 | 0.01 | 0.01 | 87 | 1012.1 |
| 20260510021531 | 62 | 212 | 0.0 | 0.0 | 0.00 | 0.01 | 0.01 | 87 | 1012.0 |
| 20260510020027 | 63 | 212 | 0.0 | 0.0 | 0.00 | 0.01 | 0.01 | 86 | 1011.9 |
| 20260510014527 | 64 | 212 | 0.0 | 0.0 | 0.00 | 0.01 | 0.01 | 85 | 1011.5 |
| 20260510013026 | 64 | 212 | 0.0 | 0.0 | 0.00 | 0.01 | 0.01 | 84 | 1011.4 |
| 20260510011526 | 65 | 212 | 0.0 | 0.0 | 0.00 | 0.01 | 0.01 | 83 | 1011.2 |
| 20260510010025 | 66 | 212 | 0.0 | 0.0 | 0.00 | 0.01 | 0.01 | 83 | 1011.0 |
| 20260510004525 | 67 | 212 | 0.0 | 0.0 | 0.00 | 0.01 | 0.01 | 82 | 1010.5 |
| 20260510003025 | 68 | 212 | 0.0 | 2.0 | 0.00 | 0.01 | 0.01 | 81 | 1010.4 |
| 20260510001524 | 69 | 212 | 0.0 | 4.0 | 0.00 | 0.01 | 0.01 | 81 | 1010.4 |
| 20260510000032 | 70 | 212 | 0.0 | 0.0 | 0.00 | 0.01 | 0.01 | 78 | 1010.2 |
| 20260509234536 | 71 | 212 | 0.0 | 0.0 | 0.00 | 0.01 | 0.01 | 77 | 1010.0 |
| 20260509233022 | 71 | 212 | 0.0 | 4.0 | 0.00 | 0.01 | 0.01 | 77 | 1010.1 |
| 20260509231522 | 72 | 212 | 0.0 | 3.0 | 0.00 | 0.01 | 0.01 | 75 | 1010.1 |
| 20260509230022 | 72 | 212 | 0.0 | 2.0 | 0.00 | 0.01 | 0.01 | 77 | 1009.9 |
| 20260509224530 | 73 | 212 | 0.0 | 6.0 | 0.00 | 0.01 | 0.01 | 74 | 1009.7 |
| 20260509223020 | 73 | 214 | 0.0 | 3.0 | 0.00 | 0.01 | 0.01 | 76 | 1009.7 |
| 20260509221522 | 74 | 210 | 2.0 | 7.0 | 0.00 | 0.01 | 0.01 | 72 | 1009.7 |
| 20260509220019 | 74 | 252 | 0.0 | 4.0 | 0.00 | 0.01 | 0.01 | 73 | 1009.5 |
| 20260509214517 | 73 | 229 | 0.0 | 5.0 | 0.00 | 0.01 | 0.01 | 73 | 1009.3 |
| 20260509213018 | 74 | 249 | 0.0 | 4.0 | 0.00 | 0.01 | 0.01 | 73 | 1009.5 |